STARLINK-4168 (52845 NORAD) Tracking and Keplerian Element Data

This shows tracking and keplerian element data for the satellite.

Feedback or suggestion? Click here.




ElementValue
Catalog52845
NameSTARLINK-4168
Epoch Orbit130
Epoch Day270.00001157
Epoch Year2022
RAAN289.0855
Inclination53.2185
Eccentricity0.0001998
Argument of Perigee43.5953
Mean Anonmoly150.863
Mean Motion15.08826898
Decay Rate0.00036582
L11 52845U 22062R 22270.00001157 .00036582 00000+0 23055-2 0 9993
L22 52845 53.2185 289.0855 0001998 43.5953 150.8630 15.08826898 1305

Live tracking and technical data element details for STARLINK-4168 (NORAD 52845). STARLINK-4168 can be tracked NOW for your location showing map with azimuth and elevation plus other details from your city location.

Track the satellite on the map from your city or location and see movement details for azimuth, elevation, latitude, longitude, range, height, and movement on the map or in text.







IsCatalogInMostPopularTable: catalog: 52845, numindb: 6
Update: records affected: 1



GetName: 52845 STARLINK-4168

Hit Count: updated at: Thu, 06 Oct 2022 04:15:26 GMT